| time (UTC) | temp F | wind direction | speed MPH | gust MPH | rain 1hr in | rain 24hr in | rain mn in | humidity % | barometer mb |
| 20260904174012 | 92 | 275 | 3.0 | 9.0 | 0.00 | 0.00 | 0.00 | 54 | 1013.9 |
| 20260904173511 | 92 | 155 | 2.0 | 10.0 | 0.00 | 0.00 | 0.00 | 54 | 1013.9 |
| 20260904173033 | 92 | 237 | 3.0 | 10.0 | 0.00 | 0.00 | 0.00 | 56 | 1014.0 |
| 20260904172515 | 91 | 26 | 2.0 | 9.0 | 0.00 | 0.00 | 0.00 | 55 | 1014.0 |
| 20260904172015 | 91 | 273 | 3.0 | 10.0 | 0.00 | 0.00 | 0.00 | 55 | 1014.1 |
| 20260904171533 | 91 | 265 | 5.0 | 10.0 | 0.00 | 0.00 | 0.00 | 55 | 1014.1 |
| 20260904171014 | 91 | 118 | 2.0 | 9.0 | 0.00 | 0.00 | 0.00 | 57 | 1014.1 |
| 20260904170514 | 90 | 267 | 1.0 | 11.0 | 0.00 | 0.00 | 0.00 | 56 | 1014.1 |
| 20260904170032 | 90 | 180 | 3.0 | 11.0 | 0.00 | 0.00 | 0.00 | 56 | 1014.3 |
| 20260904165516 | 90 | 290 | 3.0 | 10.0 | 0.00 | 0.00 | 0.00 | 57 | 1014.2 |
| 20260904165011 | 90 | 277 | 4.0 | 9.0 | 0.00 | 0.00 | 0.00 | 57 | 1014.3 |
| 20260904164515 | 89 | 225 | 2.0 | 7.0 | 0.00 | 0.00 | 0.00 | 58 | 1014.3 |
| 20260904164008 | 89 | 275 | 3.0 | 7.0 | 0.00 | 0.00 | 0.00 | 58 | 1014.3 |
| 20260904163511 | 89 | 188 | 2.0 | 7.0 | 0.00 | 0.00 | 0.00 | 58 | 1014.3 |
| 20260904163026 | 89 | 271 | 3.0 | 6.0 | 0.00 | 0.00 | 0.00 | 59 | 1014.3 |
| 20260904162513 | 88 | 210 | 1.0 | 6.0 | 0.00 | 0.00 | 0.00 | 60 | 1014.4 |
| 20260904162013 | 88 | 277 | 2.0 | 9.0 | 0.00 | 0.00 | 0.00 | 60 | 1014.4 |
| 20260904161527 | 88 | 283 | 1.0 | 9.0 | 0.00 | 0.00 | 0.00 | 61 | 1014.3 |
| 20260904161014 | 88 | 267 | 1.0 | 5.0 | 0.00 | 0.00 | 0.00 | 61 | 1014.3 |
| 20260904160516 | 87 | 269 | 1.0 | 5.0 | 0.00 | 0.00 | 0.00 | 62 | 1014.2 |
| 20260904160044 | 87 | 267 | 1.0 | 4.0 | 0.00 | 0.00 | 0.00 | 62 | 1014.2 |
| 20260904155517 | 86 | 281 | 2.0 | 7.0 | 0.00 | 0.00 | 0.00 | 64 | 1014.2 |
| 20260904155016 | 86 | 231 | 2.0 | 7.0 | 0.00 | 0.00 | 0.00 | 63 | 1014.2 |
| 20260904154537 | 86 | 217 | 1.0 | 6.0 | 0.00 | 0.00 | 0.00 | 63 | 1014.2 |
| 20260904154014 | 85 | 257 | 2.0 | 6.0 | 0.00 | 0.00 | 0.00 | 64 | 1014.2 |
| 20260904153508 | 85 | 198 | 2.0 | 7.0 | 0.00 | 0.00 | 0.00 | 65 | 1014.2 |
| 20260904153021 | 85 | 304 | 0.0 | 8.0 | 0.00 | 0.00 | 0.00 | 66 | 1014.3 |
| 20260904152511 | 84 | 275 | 2.0 | 8.0 | 0.00 | 0.00 | 0.00 | 65 | 1014.3 |
| 20260904152012 | 84 | 257 | 3.0 | 8.0 | 0.00 | 0.00 | 0.00 | 66 | 1014.4 |
| 20260904151528 | 84 | 263 | 1.0 | 6.0 | 0.00 | 0.00 | 0.00 | 67 | 1014.3 |
| 20260904151004 | 83 | 205 | 1.0 | 6.0 | 0.00 | 0.00 | 0.00 | 67 | 1014.5 |
| 20260904150506 | 83 | 279 | 1.0 | 6.0 | 0.00 | 0.00 | 0.00 | 68 | 1014.5 |
| 20260904150013 | 83 | 250 | 1.0 | 7.0 | 0.00 | 0.00 | 0.00 | 68 | 1014.5 |
| 20260904145504 | 82 | 286 | 1.0 | 9.0 | 0.00 | 0.00 | 0.00 | 69 | 1014.5 |
| 20260904145004 | 82 | 282 | 3.0 | 9.0 | 0.00 | 0.00 | 0.00 | 69 | 1014.4 |
| 20260904144510 | 82 | 240 | 1.0 | 9.0 | 0.00 | 0.00 | 0.00 | 70 | 1014.4 |
| 20260904144006 | 81 | 243 | 3.0 | 9.0 | 0.00 | 0.00 | 0.00 | 70 | 1014.3 |
| 20260904143506 | 81 | 261 | 3.0 | 7.0 | 0.00 | 0.00 | 0.00 | 70 | 1014.3 |
| 20260904143015 | 81 | 303 | 1.0 | 9.0 | 0.00 | 0.00 | 0.00 | 71 | 1014.4 |
| 20260904142509 | 81 | 300 | 0.0 | 9.0 | 0.00 | 0.00 | 0.00 | 72 | 1014.4 |
| 20260904142011 | 80 | 269 | 1.0 | 7.0 | 0.00 | 0.00 | 0.00 | 73 | 1014.4 |
| 20260904141529 | 80 | 224 | 2.0 | 7.0 | 0.00 | 0.00 | 0.00 | 73 | 1014.5 |
| 20260904141011 | 79 | 282 | 1.0 | 4.0 | 0.00 | 0.00 | 0.00 | 74 | 1014.4 |
| 20260904140513 | 79 | 277 | 1.0 | 6.0 | 0.00 | 0.00 | 0.00 | 75 | 1014.4 |
| 20260904140004 | 78 | 232 | 1.0 | 7.0 | 0.00 | 0.00 | 0.00 | 76 | 1014.4 |
| 20260904135504 | 78 | 273 | 2.0 | 7.0 | 0.00 | 0.00 | 0.00 | 77 | 1014.4 |
| 20260904135004 | 77 | 276 | 0.0 | 7.0 | 0.00 | 0.00 | 0.00 | 78 | 1014.3 |
| 20260904134506 | 77 | 287 | 0.0 | 4.0 | 0.00 | 0.00 | 0.00 | 80 | 1014.3 |
| 20260904134005 | 76 | 289 | 1.0 | 6.0 | 0.00 | 0.00 | 0.00 | 80 | 1014.2 |
| 20260904133504 | 76 | 227 | 1.0 | 6.0 | 0.00 | 0.00 | 0.00 | 81 | 1014.2 |
| 20260904133010 | 76 | 169 | 0.0 | 4.0 | 0.00 | 0.00 | 0.00 | 81 | 1014.3 |
| 20260904132508 | 75 | 285 | 0.0 | 4.0 | 0.00 | 0.00 | 0.00 | 82 | 1014.2 |
| 20260904132007 | 75 | 178 | 0.0 | 5.0 | 0.00 | 0.00 | 0.00 | 82 | 1014.1 |
| 20260904131521 | 75 | 286 | 0.0 | 5.0 | 0.00 | 0.00 | 0.00 | 83 | 1014.2 |
| 20260904131011 | 75 | 250 | 0.0 | 2.0 | 0.00 | 0.00 | 0.00 | 83 | 1014.1 |
| 20260904130512 | 74 | 267 | 0.0 | 6.0 | 0.00 | 0.00 | 0.00 | 84 | 1014.0 |
| 20260904130037 | 74 | 267 | 0.0 | 6.0 | 0.00 | 0.00 | 0.00 | 84 | 1014.0 |
| 20260904125514 | 74 | 232 | 0.0 | 4.0 | 0.00 | 0.00 | 0.00 | 84 | 1014.0 |
| 20260904125014 | 74 | 142 | 0.0 | 4.0 | 0.00 | 0.00 | 0.00 | 85 | 1013.9 |
| 20260904124506 | 73 | 240 | 0.0 | 4.0 | 0.00 | 0.00 | 0.00 | 85 | 1013.8 |
| 20260904124003 | 73 | 360 | 0.0 | 4.0 | 0.00 | 0.00 | 0.00 | 85 | 1013.8 |
| 20260904123505 | 73 | 279 | 0.0 | 4.0 | 0.00 | 0.00 | 0.00 | 86 | 1013.7 |
| 20260904123009 | 73 | 159 | 0.0 | 1.0 | 0.00 | 0.00 | 0.00 | 86 | 1013.7 |
| 20260904122504 | 72 | 320 | 0.0 | 3.0 | 0.00 | 0.00 | 0.00 | 87 | 1013.5 |
| 20260904122008 | 72 | 198 | 0.0 | 3.0 | 0.00 | 0.00 | 0.00 | 87 | 1013.5 |
| 20260904121512 | 72 | 192 | 0.0 | 2.0 | 0.00 | 0.00 | 0.00 | 87 | 1013.5 |
| 20260904121005 | 72 | 319 | 0.0 | 0.0 | 0.00 | 0.00 | 0.00 | 86 | 1013.5 |
| 20260904120508 | 72 | 319 | 0.0 | 0.0 | 0.00 | 0.00 | 0.00 | 86 | 1013.5 |
| 20260904120027 | 72 | 319 | 0.0 | 0.0 | 0.00 | 0.00 | 0.00 | 86 | 1013.5 |
| 20260904115512 | 72 | 319 | 0.0 | 0.0 | 0.00 | 0.00 | 0.00 | 86 | 1013.5 |
| 20260904115012 | 72 | 319 | 0.0 | 0.0 | 0.00 | 0.00 | 0.00 | 85 | 1013.6 |
| 20260904114530 | 72 | 319 | 0.0 | 0.0 | 0.00 | 0.00 | 0.00 | 85 | 1013.6 |
| 20260904114014 | 73 | 319 | 0.0 | 0.0 | 0.00 | 0.00 | 0.00 | 85 | 1013.6 |
| 20260904113517 | 73 | 319 | 0.0 | 0.0 | 0.00 | 0.00 | 0.00 | 85 | 1013.6 |
| 20260904113008 | 73 | 319 | 0.0 | 0.0 | 0.00 | 0.00 | 0.00 | 85 | 1013.5 |
| 20260904112504 | 73 | 319 | 0.0 | 0.0 | 0.00 | 0.00 | 0.00 | 84 | 1013.5 |
| 20260904112003 | 73 | 319 | 0.0 | 0.0 | 0.00 | 0.00 | 0.00 | 84 | 1013.6 |
| 20260904111526 | 73 | 319 | 0.0 | 0.0 | 0.00 | 0.00 | 0.00 | 84 | 1013.5 |
| 20260904111006 | 74 | 319 | 0.0 | 0.0 | 0.00 | 0.00 | 0.00 | 84 | 1013.5 |
| 20260904110508 | 74 | 309 | 0.0 | 0.0 | 0.00 | 0.00 | 0.00 | 84 | 1013.4 |
| 20260904110020 | 74 | 309 | 0.0 | 0.0 | 0.00 | 0.00 | 0.00 | 83 | 1013.4 |
| 20260904105508 | 74 | 309 | 0.0 | 1.0 | 0.00 | 0.00 | 0.00 | 83 | 1013.3 |
| 20260904105011 | 74 | 309 | 0.0 | 1.0 | 0.00 | 0.00 | 0.00 | 83 | 1013.4 |
| 20260904104526 | 74 | 257 | 0.0 | 0.0 | 0.00 | 0.00 | 0.00 | 83 | 1013.4 |
| 20260904104012 | 74 | 257 | 0.0 | 0.0 | 0.00 | 0.00 | 0.00 | 83 | 1013.4 |
| 20260904103511 | 74 | 257 | 0.0 | 0.0 | 0.00 | 0.00 | 0.00 | 82 | 1013.4 |
| 20260904103034 | 74 | 257 | 0.0 | 0.0 | 0.00 | 0.00 | 0.00 | 82 | 1013.4 |
| 20260904102515 | 75 | 257 | 0.0 | 0.0 | 0.00 | 0.00 | 0.00 | 82 | 1013.4 |
| 20260904102016 | 75 | 257 | 0.0 | 0.0 | 0.00 | 0.00 | 0.00 | 81 | 1013.4 |
| 20260904101512 | 75 | 257 | 0.0 | 0.0 | 0.00 | 0.00 | 0.00 | 81 | 1013.4 |
| 20260904101006 | 75 | 257 | 0.0 | 0.0 | 0.00 | 0.00 | 0.00 | 81 | 1013.3 |
| 20260904100506 | 75 | 257 | 0.0 | 0.0 | 0.00 | 0.00 | 0.00 | 80 | 1013.3 |
| 20260904100016 | 75 | 257 | 0.0 | 1.0 | 0.00 | 0.00 | 0.00 | 80 | 1013.3 |
| 20260904095509 | 76 | 203 | 0.0 | 2.0 | 0.00 | 0.00 | 0.00 | 80 | 1013.3 |
| 20260904095008 | 76 | 203 | 0.0 | 2.0 | 0.00 | 0.00 | 0.00 | 80 | 1013.3 |
| 20260904094522 | 76 | 191 | 0.0 | 0.0 | 0.00 | 0.00 | 0.00 | 80 | 1013.2 |
| 20260904094009 | 76 | 191 | 0.0 | 0.0 | 0.00 | 0.00 | 0.00 | 79 | 1013.2 |
| 20260904093514 | 76 | 225 | 0.0 | 0.0 | 0.00 | 0.00 | 0.00 | 78 | 1013.1 |
| 20260904093030 | 76 | 225 | 0.0 | 0.0 | 0.00 | 0.00 | 0.00 | 78 | 1013.1 |
| 20260904092512 | 77 | 225 | 0.0 | 6.0 | 0.00 | 0.00 | 0.00 | 78 | 1013.1 |
| 20260904092016 | 77 | 202 | 0.0 | 6.0 | 0.00 | 0.00 | 0.00 | 78 | 1013.1 |
| 20260904091529 | 77 | 254 | 0.0 | 5.0 | 0.00 | 0.00 | 0.00 | 78 | 1013.1 |
| 20260904091016 | 77 | 246 | 0.0 | 3.0 | 0.00 | 0.00 | 0.00 | 78 | 1013.1 |
| 20260904090508 | 77 | 115 | 0.0 | 4.0 | 0.00 | 0.00 | 0.00 | 78 | 1013.1 |
| 20260904090014 | 77 | 261 | 1.0 | 6.0 | 0.00 | 0.00 | 0.00 | 78 | 1012.9 |
| 20260904085507 | 76 | 264 | 0.0 | 6.0 | 0.00 | 0.00 | 0.00 | 78 | 1013.0 |
| 20260904085009 | 76 | 263 | 0.0 | 4.0 | 0.00 | 0.00 | 0.00 | 78 | 1012.9 |
| 20260904084520 | 76 | 230 | 0.0 | 4.0 | 0.00 | 0.00 | 0.00 | 78 | 1013.0 |
| 20260904084010 | 76 | 230 | 0.0 | 4.0 | 0.00 | 0.00 | 0.00 | 78 | 1013.0 |
| 20260904083512 | 76 | 248 | 0.0 | 0.0 | 0.00 | 0.00 | 0.00 | 77 | 1012.9 |
| 20260904083024 | 76 | 248 | 0.0 | 0.0 | 0.00 | 0.00 | 0.00 | 77 | 1013.0 |
| 20260904082510 | 76 | 248 | 0.0 | 0.0 | 0.00 | 0.00 | 0.00 | 77 | 1013.1 |
| 20260904082012 | 76 | 248 | 0.0 | 3.0 | 0.00 | 0.00 | 0.00 | 77 | 1013.1 |
| 20260904081508 | 76 | 248 | 0.0 | 3.0 | 0.00 | 0.00 | 0.00 | 77 | 1013.1 |
| 20260904081003 | 76 | 248 | 0.0 | 0.0 | 0.00 | 0.00 | 0.00 | 77 | 1013.1 |
| 20260904080506 | 76 | 161 | 0.0 | 0.0 | 0.00 | 0.00 | 0.00 | 77 | 1013.1 |
| 20260904080008 | 76 | 148 | 0.0 | 0.0 | 0.00 | 0.00 | 0.00 | 76 | 1013.1 |
| 20260904075506 | 77 | 148 | 0.0 | 0.0 | 0.00 | 0.00 | 0.00 | 76 | 1013.1 |
| 20260904075003 | 77 | 148 | 0.0 | 0.0 | 0.00 | 0.00 | 0.00 | 75 | 1013.1 |
| 20260904074521 | 77 | 148 | 0.0 | 0.0 | 0.00 | 0.00 | 0.00 | 75 | 1013.1 |
| 20260904074007 | 77 | 148 | 0.0 | 0.0 | 0.00 | 0.00 | 0.00 | 74 | 1013.2 |
| 20260904073511 | 78 | 148 | 0.0 | 3.0 | 0.00 | 0.00 | 0.00 | 74 | 1013.1 |
| 20260904073024 | 78 | 148 | 0.0 | 3.0 | 0.00 | 0.00 | 0.00 | 73 | 1013.2 |
| 20260904072509 | 78 | 263 | 0.0 | 0.0 | 0.00 | 0.00 | 0.00 | 73 | 1013.3 |
| 20260904072010 | 79 | 263 | 0.0 | 2.0 | 0.00 | 0.00 | 0.00 | 73 | 1013.3 |
| 20260904071526 | 79 | 263 | 0.0 | 2.0 | 0.00 | 0.00 | 0.00 | 72 | 1013.2 |
| 20260904071012 | 79 | 263 | 0.0 | 0.0 | 0.00 | 0.00 | 0.00 | 72 | 1013.2 |
| 20260904070518 | 79 | 175 | 0.0 | 0.0 | 0.00 | 0.00 | 0.00 | 72 | 1013.2 |
| 20260904070031 | 79 | 262 | 0.0 | 0.0 | 0.00 | 0.00 | 0.00 | 72 | 1013.1 |
| 20260904065504 | 79 | 262 | 0.0 | 0.0 | 0.00 | 0.00 | 0.00 | 71 | 1013.1 |
| 20260904065006 | 80 | 271 | 0.0 | 1.0 | 0.00 | 0.00 | 0.00 | 71 | 1013.1 |
| 20260904064512 | 80 | 271 | 0.0 | 2.0 | 0.00 | 0.00 | 0.00 | 70 | 1013.2 |
| 20260904064009 | 80 | 271 | 0.0 | 3.0 | 0.00 | 0.00 | 0.00 | 70 | 1013.1 |
| 20260904063506 | 80 | 271 | 0.0 | 3.0 | 0.00 | 0.00 | 0.00 | 70 | 1013.1 |
| 20260904063016 | 80 | 271 | 0.0 | 3.0 | 0.00 | 0.00 | 0.00 | 70 | 1013.0 |
| 20260904062508 | 80 | 271 | 0.0 | 7.0 | 0.00 | 0.00 | 0.00 | 70 | 1013.0 |
| 20260904062008 | 80 | 271 | 2.0 | 7.0 | 0.00 | 0.00 | 0.00 | 69 | 1013.0 |
| 20260904061526 | 80 | 289 | 0.0 | 5.0 | 0.00 | 0.00 | 0.00 | 70 | 1013.1 |
| 20260904061015 | 81 | 291 | 0.0 | 4.0 | 0.00 | 0.00 | 0.00 | 69 | 1012.9 |
| 20260904060512 | 81 | 284 | 1.0 | 4.0 | 0.00 | 0.00 | 0.00 | 69 | 1012.9 |
| 20260904060031 | 81 | 249 | 1.0 | 9.0 | 0.00 | 0.00 | 0.00 | 69 | 1012.9 |
| 20260904055514 | 81 | 254 | 1.0 | 9.0 | 0.00 | 0.00 | 0.00 | 69 | 1012.9 |
| 20260904055014 | 81 | 218 | 1.0 | 6.0 | 0.00 | 0.00 | 0.00 | 69 | 1012.9 |
| 20260904054533 | 81 | 260 | 1.0 | 7.0 | 0.00 | 0.00 | 0.00 | 69 | 1012.9 |
| 20260904054004 | 81 | 246 | 1.0 | 7.0 | 0.00 | 0.00 | 0.00 | 69 | 1012.8 |
| 20260904053504 | 81 | 294 | 1.0 | 6.0 | 0.00 | 0.00 | 0.00 | 69 | 1012.8 |
| 20260904053020 | 81 | 271 | 0.0 | 3.0 | 0.00 | 0.00 | 0.00 | 69 | 1012.8 |
| 20260904052506 | 81 | 259 | 0.0 | 3.0 | 0.00 | 0.00 | 0.00 | 69 | 1012.8 |
| 20260904052006 | 81 | 40 | 0.0 | 5.0 | 0.00 | 0.00 | 0.00 | 69 | 1012.7 |
| 20260904051550 | 81 | 246 | 1.0 | 5.0 | 0.00 | 0.00 | 0.00 | 68 | 1012.7 |
| 20260904051010 | 81 | 246 | 1.0 | 3.0 | 0.00 | 0.00 | 0.00 | 68 | 1012.7 |
| 20260904050515 | 82 | 242 | 1.0 | 4.0 | 0.00 | 0.00 | 0.00 | 68 | 1012.6 |
| 20260904050029 | 82 | 176 | 0.0 | 4.0 | 0.00 | 0.00 | 0.00 | 67 | 1012.6 |
| 20260904045516 | 82 | 286 | 0.0 | 3.0 | 0.00 | 0.00 | 0.00 | 67 | 1012.5 |
| 20260904045014 | 82 | 185 | 0.0 | 3.0 | 0.00 | 0.00 | 0.00 | 67 | 1012.6 |
| 20260904044532 | 82 | 281 | 0.0 | 3.0 | 0.00 | 0.00 | 0.00 | 66 | 1012.5 |
| 20260904044014 | 82 | 219 | 0.0 | 7.0 | 0.00 | 0.00 | 0.00 | 66 | 1012.4 |
| 20260904043514 | 83 | 216 | 0.0 | 7.0 | 0.00 | 0.00 | 0.00 | 66 | 1012.5 |
| 20260904043032 | 83 | 270 | 1.0 | 7.0 | 0.00 | 0.00 | 0.00 | 65 | 1012.5 |
| 20260904042506 | 83 | 188 | 1.0 | 7.0 | 0.00 | 0.00 | 0.00 | 65 | 1012.5 |
| 20260904042007 | 83 | 260 | 2.0 | 7.0 | 0.00 | 0.00 | 0.00 | 65 | 1012.5 |
| 20260904041521 | 83 | 277 | 1.0 | 5.0 | 0.00 | 0.00 | 0.00 | 65 | 1012.4 |
| 20260904041005 | 83 | 241 | 1.0 | 4.0 | 0.00 | 0.00 | 0.00 | 65 | 1012.4 |
| 20260904040510 | 83 | 252 | 0.0 | 3.0 | 0.00 | 0.00 | 0.00 | 65 | 1012.4 |
| 20260904040033 | 83 | 150 | 1.0 | 3.0 | 0.00 | 0.00 | 0.00 | 65 | 1012.4 |
| 20260904035512 | 83 | 251 | 0.0 | 3.0 | 0.00 | 0.00 | 0.00 | 65 | 1012.4 |
| 20260904035013 | 83 | 252 | 0.0 | 3.0 | 0.00 | 0.00 | 0.00 | 65 | 1012.4 |
| 20260904034529 | 84 | 203 | 0.0 | 3.0 | 0.00 | 0.00 | 0.00 | 64 | 1012.4 |
| 20260904034014 | 84 | 222 | 1.0 | 3.0 | 0.00 | 0.00 | 0.00 | 64 | 1012.4 |
| 20260904033515 | 84 | 319 | 1.0 | 4.0 | 0.00 | 0.00 | 0.00 | 64 | 1012.4 |
| 20260904033032 | 84 | 138 | 1.0 | 4.0 | 0.00 | 0.00 | 0.00 | 63 | 1012.4 |
| 20260904032516 | 84 | 219 | 0.0 | 4.0 | 0.00 | 0.00 | 0.00 | 63 | 1012.4 |
| 20260904032013 | 84 | 219 | 1.0 | 4.0 | 0.00 | 0.00 | 0.00 | 63 | 1012.4 |
| 20260904031534 | 85 | 223 | 1.0 | 4.0 | 0.00 | 0.00 | 0.00 | 63 | 1012.4 |
| 20260904031010 | 85 | 246 | 1.0 | 4.0 | 0.00 | 0.00 | 0.00 | 62 | 1012.4 |
| 20260904030506 | 85 | 116 | 1.0 | 4.0 | 0.00 | 0.00 | 0.00 | 62 | 1012.3 |
| 20260904030018 | 85 | 274 | 1.0 | 4.0 | 0.00 | 0.00 | 0.00 | 62 | 1012.3 |
| 20260904025507 | 85 | 277 | 0.0 | 4.0 | 0.00 | 0.00 | 0.00 | 62 | 1012.2 |
| 20260904025013 | 85 | 276 | 1.0 | 4.0 | 0.00 | 0.00 | 0.00 | 61 | 1012.2 |
| 20260904024523 | 86 | 184 | 0.0 | 6.0 | 0.00 | 0.00 | 0.00 | 61 | 1012.2 |
| 20260904024012 | 86 | 211 | 1.0 | 6.0 | 0.00 | 0.00 | 0.00 | 61 | 1012.2 |
| 20260904023516 | 86 | 243 | 1.0 | 4.0 | 0.00 | 0.00 | 0.00 | 60 | 1012.1 |
| 20260904023029 | 86 | 259 | 0.0 | 3.0 | 0.00 | 0.00 | 0.00 | 60 | 1012.1 |
| 20260904022514 | 86 | 284 | 0.0 | 6.0 | 0.00 | 0.00 | 0.00 | 59 | 1012.0 |
| 20260904022016 | 87 | 279 | 1.0 | 6.0 | 0.00 | 0.00 | 0.00 | 59 | 1011.9 |
| 20260904021536 | 87 | 278 | 1.0 | 4.0 | 0.00 | 0.00 | 0.00 | 59 | 1011.9 |
| 20260904021021 | 87 | 265 | 0.0 | 4.0 | 0.00 | 0.00 | 0.00 | 58 | 1011.9 |
| 20260904020519 | 87 | 188 | 1.0 | 5.0 | 0.00 | 0.00 | 0.00 | 57 | 1011.8 |
| 20260904020032 | 88 | 278 | 2.0 | 6.0 | 0.00 | 0.00 | 0.00 | 57 | 1011.7 |
| 20260904015507 | 88 | 285 | 1.0 | 7.0 | 0.00 | 0.00 | 0.00 | 56 | 1011.6 |
| 20260904015007 | 88 | 205 | 1.0 | 7.0 | 0.00 | 0.00 | 0.00 | 56 | 1011.5 |
| 20260904014522 | 88 | 238 | 2.0 | 6.0 | 0.00 | 0.00 | 0.00 | 55 | 1011.4 |
| 20260904014015 | 89 | 306 | 1.0 | 6.0 | 0.00 | 0.00 | 0.00 | 55 | 1011.2 |
| 20260904013510 | 89 | 143 | 2.0 | 6.0 | 0.00 | 0.00 | 0.00 | 54 | 1011.0 |
| 20260904013028 | 89 | 292 | 0.0 | 6.0 | 0.00 | 0.00 | 0.00 | 54 | 1011.0 |
| 20260904012512 | 89 | 223 | 2.0 | 6.0 | 0.00 | 0.00 | 0.00 | 54 | 1010.8 |
| 20260904012014 | 90 | 263 | 2.0 | 4.0 | 0.00 | 0.00 | 0.00 | 53 | 1010.7 |
| 20260904011535 | 90 | 263 | 2.0 | 7.0 | 0.00 | 0.00 | 0.00 | 52 | 1010.7 |
| 20260904011014 | 90 | 301 | 1.0 | 7.0 | 0.00 | 0.00 | 0.00 | 52 | 1010.6 |
| 20260904010516 | 90 | 272 | 1.0 | 6.0 | 0.00 | 0.00 | 0.00 | 51 | 1010.6 |
| 20260904010044 | 91 | 251 | 2.0 | 6.0 | 0.00 | 0.00 | 0.00 | 51 | 1010.6 |
| 20260904005515 | 91 | 281 | 1.0 | 4.0 | 0.00 | 0.00 | 0.00 | 50 | 1010.6 |
| 20260904005016 | 91 | 279 | 1.0 | 5.0 | 0.00 | 0.00 | 0.00 | 49 | 1010.6 |
| 20260904004536 | 91 | 281 | 0.0 | 7.0 | 0.00 | 0.00 | 0.00 | 49 | 1010.5 |
| 20260904004006 | 92 | 276 | 2.0 | 7.0 | 0.00 | 0.00 | 0.00 | 48 | 1010.4 |
| 20260904003512 | 92 | 135 | 1.0 | 7.0 | 0.00 | 0.00 | 0.00 | 48 | 1010.4 |
| 20260904003026 | 92 | 259 | 1.0 | 10.0 | 0.00 | 0.00 | 0.00 | 47 | 1010.3 |
| 20260904002510 | 93 | 254 | 3.0 | 10.0 | 0.00 | 0.00 | 0.00 | 47 | 1010.3 |
| 20260904002012 | 93 | 209 | 3.0 | 10.0 | 0.00 | 0.00 | 0.00 | 46 | 1010.2 |
| 20260904001529 | 93 | 185 | 2.0 | 6.0 | 0.00 | 0.00 | 0.00 | 46 | 1010.1 |
| 20260904001004 | 93 | 142 | 1.0 | 4.0 | 0.00 | 0.00 | 0.00 | 45 | 1010.2 |
| 20260904000504 | 94 | 259 | 1.0 | 7.0 | 0.00 | 0.00 | 0.00 | 45 | 1010.1 |
| 20260904000010 | 94 | 259 | 1.0 | 7.0 | 0.00 | 0.00 | 0.00 | 44 | 1010.1 |
| 20260903235503 | 94 | 289 | 2.0 | 8.0 | 0.00 | 0.00 | 0.00 | 44 | 1010.1 |
| 20260903235003 | 94 | 261 | 2.0 | 8.0 | 0.00 | 0.00 | 0.00 | 44 | 1010.0 |
| 20260903234512 | 95 | 256 | 2.0 | 7.0 | 0.00 | 0.00 | 0.00 | 43 | 1010.0 |
| 20260903234008 | 95 | 207 | 2.0 | 7.0 | 0.00 | 0.00 | 0.00 | 43 | 1010.0 |
| 20260903233509 | 95 | 271 | 2.0 | 7.0 | 0.00 | 0.00 | 0.00 | 42 | 1010.1 |
| 20260903233018 | 96 | 296 | 3.0 | 14.0 | 0.00 | 0.00 | 0.00 | 41 | 1010.1 |
| 20260903232508 | 96 | 182 | 3.0 | 14.0 | 0.00 | 0.00 | 0.00 | 41 | 1010.0 |
| 20260903232012 | 96 | 201 | 4.0 | 14.0 | 0.00 | 0.00 | 0.00 | 40 | 1009.9 |
| 20260903231524 | 97 | 259 | 1.0 | 10.0 | 0.00 | 0.00 | 0.00 | 41 | 1009.9 |
| 20260903231014 | 97 | 263 | 2.0 | 10.0 | 0.00 | 0.00 | 0.00 | 41 | 1009.9 |
| 20260903230503 | 97 | 263 | 1.0 | 8.0 | 0.00 | 0.00 | 0.00 | 41 | 1009.9 |
| 20260903230008 | 97 | 238 | 2.0 | 8.0 | 0.00 | 0.00 | 0.00 | 40 | 1009.9 |
| 20260903225503 | 98 | 234 | 2.0 | 11.0 | 0.00 | 0.00 | 0.00 | 39 | 1009.8 |
| 20260903225002 | 98 | 247 | 1.0 | 11.0 | 0.00 | 0.00 | 0.00 | 39 | 1009.9 |
| 20260903224511 | 98 | 280 | 2.0 | 9.0 | 0.00 | 0.00 | 0.00 | 38 | 1009.9 |
| 20260903224004 | 98 | 261 | 2.0 | 10.0 | 0.00 | 0.00 | 0.00 | 39 | 1009.9 |
| 20260903223507 | 98 | 284 | 2.0 | 10.0 | 0.00 | 0.00 | 0.00 | 38 | 1009.9 |
| 20260903223014 | 98 | 271 | 3.0 | 8.0 | 0.00 | 0.00 | 0.00 | 38 | 1009.9 |
| 20260903222509 | 98 | 146 | 3.0 | 10.0 | 0.00 | 0.00 | 0.00 | 38 | 1009.9 |
| 20260903222008 | 98 | 255 | 4.0 | 10.0 | 0.00 | 0.00 | 0.00 | 39 | 1009.9 |
| 20260903221523 | 98 | 253 | 3.0 | 8.0 | 0.00 | 0.00 | 0.00 | 38 | 1009.9 |
| 20260903221011 | 98 | 322 | 1.0 | 8.0 | 0.00 | 0.00 | 0.00 | 39 | 1010.0 |
| 20260903220514 | 99 | 273 | 3.0 | 8.0 | 0.00 | 0.00 | 0.00 | 38 | 1010.0 |
| 20260903220028 | 99 | 271 | 3.0 | 8.0 | 0.00 | 0.00 | 0.00 | 37 | 1010.1 |
| 20260903215516 | 99 | 263 | 2.0 | 8.0 | 0.00 | 0.00 | 0.00 | 37 | 1010.1 |
| 20260903215003 | 99 | 265 | 1.0 | 6.0 | 0.00 | 0.00 | 0.00 | 37 | 1010.2 |
| 20260903214511 | 99 | 262 | 2.0 | 7.0 | 0.00 | 0.00 | 0.00 | 37 | 1010.3 |
| 20260903214003 | 99 | 300 | 3.0 | 7.0 | 0.00 | 0.00 | 0.00 | 36 | 1010.4 |
| 20260903213504 | 99 | 209 | 2.0 | 7.0 | 0.00 | 0.00 | 0.00 | 37 | 1010.3 |
| 20260903213017 | 99 | 274 | 2.0 | 8.0 | 0.00 | 0.00 | 0.00 | 37 | 1010.3 |
| 20260903212504 | 99 | 333 | 1.0 | 8.0 | 0.00 | 0.00 | 0.00 | 38 | 1010.3 |
| 20260903212011 | 98 | 209 | 3.0 | 8.0 | 0.00 | 0.00 | 0.00 | 37 | 1010.3 |
| 20260903211516 | 99 | 196 | 3.0 | 14.0 | 0.00 | 0.00 | 0.00 | 37 | 1010.4 |
| 20260903211011 | 99 | 260 | 2.0 | 14.0 | 0.00 | 0.00 | 0.00 | 37 | 1010.4 |
| 20260903210502 | 99 | 259 | 2.0 | 10.0 | 0.00 | 0.00 | 0.00 | 38 | 1010.5 |
| 20260903210004 | 99 | 163 | 2.0 | 11.0 | 0.00 | 0.00 | 0.00 | 39 | 1010.5 |
| 20260903205506 | 98 | 333 | 3.0 | 11.0 | 0.00 | 0.00 | 0.00 | 39 | 1010.5 |
| 20260903205003 | 98 | 229 | 4.0 | 8.0 | 0.00 | 0.00 | 0.00 | 38 | 1010.6 |
| 20260903204506 | 98 | 303 | 2.0 | 8.0 | 0.00 | 0.00 | 0.00 | 39 | 1010.6 |
| 20260903204002 | 98 | 292 | 4.0 | 10.0 | 0.00 | 0.00 | 0.00 | 39 | 1010.8 |
| 20260903203504 | 98 | 332 | 2.0 | 10.0 | 0.00 | 0.00 | 0.00 | 40 | 1010.8 |
| 20260903203008 | 98 | 288 | 3.0 | 11.0 | 0.00 | 0.00 | 0.00 | 40 | 1010.9 |
| 20260903202506 | 98 | 275 | 4.0 | 11.0 | 0.00 | 0.00 | 0.00 | 40 | 1010.9 |
| 20260903202004 | 98 | 242 | 3.0 | 11.0 | 0.00 | 0.00 | 0.00 | 40 | 1010.9 |
| 20260903201512 | 98 | 283 | 3.0 | 11.0 | 0.00 | 0.00 | 0.00 | 39 | 1010.9 |
| 20260903201008 | 98 | 299 | 3.0 | 11.0 | 0.00 | 0.00 | 0.00 | 41 | 1010.9 |
| 20260903200507 | 98 | 256 | 2.0 | 9.0 | 0.00 | 0.00 | 0.00 | 41 | 1011.1 |
| 20260903200021 | 98 | 217 | 3.0 | 9.0 | 0.00 | 0.00 | 0.00 | 42 | 1011.0 |
| 20260903195510 | 98 | 259 | 2.0 | 9.0 | 0.00 | 0.00 | 0.00 | 41 | 1011.0 |
| 20260903195004 | 97 | 198 | 3.0 | 10.0 | 0.00 | 0.00 | 0.00 | 42 | 1011.1 |
| 20260903194504 | 97 | 283 | 4.0 | 10.0 | 0.00 | 0.00 | 0.00 | 43 | 1011.3 |
| 20260903194002 | 97 | 309 | 3.0 | 12.0 | 0.00 | 0.00 | 0.00 | 44 | 1011.3 |
| 20260903193504 | 97 | 253 | 4.0 | 12.0 | 0.00 | 0.00 | 0.00 | 42 | 1011.4 |
| 20260903193006 | 97 | 194 | 3.0 | 10.0 | 0.00 | 0.00 | 0.00 | 43 | 1011.5 |
| 20260903192503 | 96 | 163 | 2.0 | 10.0 | 0.00 | 0.00 | 0.00 | 44 | 1011.6 |
| 20260903192004 | 96 | 297 | 3.0 | 10.0 | 0.00 | 0.00 | 0.00 | 44 | 1011.7 |
| 20260903191510 | 96 | 271 | 2.0 | 10.0 | 0.00 | 0.00 | 0.00 | 44 | 1011.8 |
| 20260903191004 | 96 | 204 | 3.0 | 8.0 | 0.00 | 0.00 | 0.00 | 46 | 1011.8 |
| 20260903190509 | 96 | 258 | 2.0 | 11.0 | 0.00 | 0.00 | 0.00 | 45 | 1011.9 |
| 20260903190017 | 95 | 311 | 2.0 | 11.0 | 0.00 | 0.00 | 0.00 | 47 | 1011.9 |
| 20260903185509 | 95 | 150 | 3.0 | 9.0 | 0.00 | 0.00 | 0.00 | 47 | 1011.9 |
| 20260903185010 | 95 | 254 | 4.0 | 9.0 | 0.00 | 0.00 | 0.00 | 47 | 1012.1 |
| 20260903184523 | 94 | 248 | 3.0 | 11.0 | 0.00 | 0.00 | 0.00 | 46 | 1012.1 |
| 20260903184013 | 94 | 241 | 3.0 | 11.0 | 0.00 | 0.00 | 0.00 | 47 | 1012.2 |
| 20260903183512 | 94 | 292 | 4.0 | 10.0 | 0.00 | 0.00 | 0.00 | 47 | 1012.2 |
| 20260903183005 | 94 | 284 | 3.0 | 10.0 | 0.00 | 0.00 | 0.00 | 48 | 1012.4 |
| 20260903182503 | 94 | 51 | 2.0 | 10.0 | 0.00 | 0.00 | 0.00 | 48 | 1012.4 |
| 20260903182004 | 94 | 259 | 3.0 | 10.0 | 0.00 | 0.00 | 0.00 | 50 | 1012.5 |
| 20260903181508 | 93 | 159 | 3.0 | 10.0 | 0.00 | 0.00 | 0.00 | 51 | 1012.7 |
| 20260903181004 | 93 | 308 | 3.0 | 8.0 | 0.00 | 0.00 | 0.00 | 49 | 1012.7 |
| 20260903180505 | 94 | 273 | 3.0 | 8.0 | 0.00 | 0.00 | 0.00 | 49 | 1012.8 |
| 20260903180015 | 93 | 17 | 2.0 | 9.0 | 0.00 | 0.00 | 0.00 | 50 | 1012.9 |
| 20260903175508 | 93 | 229 | 4.0 | 9.0 | 0.00 | 0.00 | 0.00 | 50 | 1013.1 |
| 20260903175008 | 93 | 230 | 3.0 | 10.0 | 0.00 | 0.00 | 0.00 | 50 | 1013.0 |
| 20260903174523 | 92 | 289 | 2.0 | 11.0 | 0.00 | 0.00 | 0.00 | 51 | 1013.1 |